カタログに戻る

COSMOS 2251 DEB

運用中LEO
NORAD 35883·DEBRIS·🇷🇺 Russia

打ち上げ Jun 16, 1993 から Plesetsk Cosmodrome

Loading…

次のパス (今後24時間)

TLE

経年Source: Space-Track

元期: Sep 12, 2026, 08:15 UTC

1 35883U 93036ATW 26255.34382472  .00000521  00000-0  13302-3 0  9991
2 35883  74.0212 275.0606 0083826 335.0753  37.3379 14.51079346663540

AllMySatでCOSMOS 2251 DEBをリアルタイム追跡

Download on the App Store